Location: Cheyres
(46.8153°N, 6.7877°E)
Time: 20:49:02
(UTC+00:00)

NANOSAT C BR1 - Pass Details

Date: 28 June 2022
Orbit: 584 x 599 km, 98.0° (Epoch: 13 August)

Event Time Altitude Azimuth Distance (km) Brightness Sun altitude
Rises 00:45:50 0° 27° (NNE) 2,846 ? -18.1°
Reaches altitude 10° 00:48:28 10° 43° (NE) 1,941 ? -18.0°
Maximum altitude 00:51:41 21° 93° (E) 1,367 ? -17.8°
Enters shadow 00:54:14 13° 136° (SE) 1,753 ? -17.7°
